Location: Unspecified
(35.7250°N, 0.0000°E)
Time: 22:51:22
(UTC+00:00)

SR - Pass Details

Date: 21 June 2019
Orbit: 574 x 881 km, 66.7° (Epoch: 22 October)

Event Time Altitude Azimuth Distance (km) Brightness Sun altitude
Exits shadow 02:17:09 - 129° (SE) 1,945 ? -22.7°
Reaches altitude 10° 02:17:35 10° 124° (SE) 1,882 ? -22.7°
Maximum altitude 02:18:54 11° 105° (ESE) 1,795 ? -22.5°
Drops below altitude 10° 02:20:13 10° 87° (E) 1,880 ? -22.4°
Sets 02:23:57 0° 53° (NE) 2,793 ? -21.9°
